Showing default

CENTISPACE-1 S8, 62577

Orbit data source: Space-Track

CENTISPACE-1 S8, 62577 is a payload satellite owned by Centispace (CN) in LEO that was launched on Mon, 13 Jan 2025 UTC via a JIELONG-3 launch vehicle from the Yellow Sea Launch Area, China (YSLA). Payload-class satellites include a variety of spacecraft equipped with specific instruments for various scientific and technological missions. These include communications satellites like Starlink; space stations such as the ISS; scientific satellites like the Hubble; Earth observation satellites from companies like Planet Labs, Umbra, and HawkEye 360; GPS; miniature CubeSats for education and research; and military/defense satellites.

Loading next visibility...
Identifier
62577, 2025-007C
Orbit
LEO
Country
Flag of CNCN / PRC
Related business
Manufacturer
DFH Shenzhen
Mission
Operational Commercial Nav/Com
Bus & Motor
WK01, Unknown motor
Mass
140 kg wet, 140 kg dry
Launch date (UTC)
2025-01-13 (8 months ago)
Launch vehicle
JIELONG-3
Launch site
Yellow Sea Launch Area, China (YSLA)
Object type
Payload
Rocket body
Debris
Shape & HBR
Box + 2 Pan, 1.0 m
Radar Cross Section
0.833 m², Medium (>0.1 m² and < 1m²)

Expand to show TLE details & history
Last TLE update: 3 days ago

TLE from 3 days ago
0 CENTISPACE-1 S8
1 62577U 25007C   25255.91017159 -.00000065  00000-0  29570-4 0  9992
2 62577  54.9839 224.0262 0070117 350.0050   9.9538 14.47490177 35729
Epoch: 2025-09-12T21:50Z
TLE epoch observation values (Epoch: 2025-09-12T21:50:38.825Z)
Latitude
-0.00003°
Longitude
-95.7867°
Altitude
685.806 km
Speed
7.54 km/s
True Right ascension
14h 56m 06s
True Declination
0° 00' 00"
Sunlit
Object was in daylight at epoch
Visualization orbit readout
Latitude
Unknown
Longitude
Unknown
Altitude
Unknown
Speed
Unknown
Apparent Right ascension
Unknown
Apparent Declination
Unknown
Sunlit
N/A
Visualization observer readout
Local Sidereal Time
03:05:59
Azimuth
Unknown
Elevation
Unknown
Doppler factor
Unknown
Orbital elements
Apogee altitude
783.691 km
Perigee altitude
683.957 km
Semi-major axis
7,111.961 km
Eccentricity
0.00701
Inclination
54.9839°
RAAN
224.0262°
Arg. of periapsis
350.005°
True anomaly
10.09389°
Mean anomaly
9.9538°
Eccentric anomaly
10.02373°
Mean motion
3.61875 °/min
Orbital period
99.48 mins
BSTAR
0.00002957
Loading maneuver chart data...
Computing Atmospheric mass density...
Loading historical data...
Loading historical data...
Loading historical data...
Loading historical data...
Loading historical data...
Loading historical data...
Loading historical data...

Documentation

Showing up to 5 results
|